Year,Month,Day,Hour,Minute,Value (Times are PST for temperature in C)
2024,01,26,00,00,-13.10
2024,01,26,00,01,-13.10
2024,01,26,00,02,-13.10
2024,01,26,00,03,-13.10
2024,01,26,00,04,-13.10
2024,01,26,00,05,-13.10
2024,01,26,00,06,-13.00
2024,01,26,00,07,-13.00
2024,01,26,00,08,-13.00
2024,01,26,00,09,-13.00
2024,01,26,00,10,-13.00
2024,01,26,00,11,-12.90
2024,01,26,00,12,-13.00
2024,01,26,00,13,-13.00
2024,01,26,00,14,-13.00
2024,01,26,00,15,-12.90
2024,01,26,00,16,-12.90
2024,01,26,00,17,-12.90
2024,01,26,00,18,-12.90
2024,01,26,00,19,-12.90
2024,01,26,00,20,-12.80
2024,01,26,00,21,-12.80
2024,01,26,00,22,-12.80
2024,01,26,00,23,-12.80
2024,01,26,00,24,-12.70
2024,01,26,00,25,-12.70
2024,01,26,00,26,-12.70
2024,01,26,00,27,-12.60
2024,01,26,00,28,-12.60
2024,01,26,00,29,-12.60
2024,01,26,00,30,-12.60
2024,01,26,00,31,-12.60
2024,01,26,00,32,-12.60
2024,01,26,00,33,-12.50
2024,01,26,00,34,-12.50
2024,01,26,00,35,-12.50
2024,01,26,00,36,-12.40
2024,01,26,00,37,-12.50
2024,01,26,00,38,-12.50
2024,01,26,00,39,-12.50
2024,01,26,00,40,-12.40
2024,01,26,00,41,-12.50
2024,01,26,00,42,-12.40
2024,01,26,00,43,-12.50
2024,01,26,00,44,-12.50
2024,01,26,00,45,-12.50
2024,01,26,00,46,-12.50
2024,01,26,00,47,-12.50
2024,01,26,00,48,-12.50
2024,01,26,00,49,-12.40
2024,01,26,00,50,-12.40
2024,01,26,00,51,-12.40
2024,01,26,00,52,-12.40
2024,01,26,00,53,-12.40
2024,01,26,00,54,-12.40
2024,01,26,00,55,-12.40
2024,01,26,00,56,-12.30
2024,01,26,00,57,-12.40
2024,01,26,00,58,-12.30
2024,01,26,00,59,-12.40
2024,01,26,01,00,-12.30
2024,01,26,01,01,-12.30
2024,01,26,01,02,-12.30
2024,01,26,01,03,-12.30
2024,01,26,01,04,-12.30
2024,01,26,01,05,-12.30
2024,01,26,01,06,-12.20
2024,01,26,01,07,-12.20
2024,01,26,01,08,-12.20
2024,01,26,01,09,-12.10
2024,01,26,01,10,-12.10
2024,01,26,01,11,-12.10
2024,01,26,01,12,-12.00
2024,01,26,01,13,-12.00
2024,01,26,01,14,-11.90
2024,01,26,01,15,-11.90
2024,01,26,01,16,-11.90
2024,01,26,01,17,-11.80
2024,01,26,01,18,-11.80
2024,01,26,01,19,-11.80
2024,01,26,01,20,-11.80
2024,01,26,01,21,-11.80
2024,01,26,01,22,-11.80
2024,01,26,01,23,-11.80
2024,01,26,01,24,-11.70
2024,01,26,01,25,-11.70
2024,01,26,01,26,-11.70
2024,01,26,01,27,-11.70
2024,01,26,01,28,-11.60
2024,01,26,01,29,-11.60
2024,01,26,01,30,-11.60
2024,01,26,01,31,-11.60
2024,01,26,01,32,-11.60
2024,01,26,01,33,-11.60
2024,01,26,01,34,-11.60
2024,01,26,01,35,-11.60
2024,01,26,01,36,-11.50
2024,01,26,01,37,-11.50
2024,01,26,01,38,-11.40
2024,01,26,01,39,-11.30
2024,01,26,01,40,-11.10
2024,01,26,01,41,-10.90
2024,01,26,01,42,-10.80
2024,01,26,01,43,-10.80
2024,01,26,01,44,-10.70
2024,01,26,01,45,-10.60
2024,01,26,01,46,-10.60
2024,01,26,01,47,-10.50
2024,01,26,01,48,-10.40
2024,01,26,01,49,-10.40
2024,01,26,01,50,-10.30
2024,01,26,01,51,-10.30
2024,01,26,01,52,-10.20
2024,01,26,01,53,-10.10
2024,01,26,01,54,-10.10
2024,01,26,01,55,-10.00
2024,01,26,01,56,-10.00
2024,01,26,01,57,-9.90
2024,01,26,01,58,-9.80
2024,01,26,01,59,-9.80
2024,01,26,02,00,-9.80
2024,01,26,02,01,-9.80
2024,01,26,02,02,-9.70
2024,01,26,02,03,-9.60
2024,01,26,02,04,-9.60
2024,01,26,02,05,-9.60
2024,01,26,02,06,-9.50
2024,01,26,02,07,-9.50
2024,01,26,02,08,-9.50
2024,01,26,02,09,-9.50
2024,01,26,02,10,-9.40
2024,01,26,02,11,-9.40
2024,01,26,02,12,-9.40
2024,01,26,02,13,-9.40
2024,01,26,02,14,-9.40
2024,01,26,02,15,-9.30
2024,01,26,02,16,-9.30
2024,01,26,02,17,-9.30
2024,01,26,02,18,-9.30
2024,01,26,02,19,-9.30
2024,01,26,02,20,-9.30
2024,01,26,02,21,-9.30
2024,01,26,02,22,-9.20
2024,01,26,02,23,-9.20
2024,01,26,02,24,-9.10
2024,01,26,02,25,-9.10
2024,01,26,02,26,-9.10
2024,01,26,02,27,-9.10
2024,01,26,02,28,-9.10
2024,01,26,02,29,-9.10
2024,01,26,02,30,-9.00
2024,01,26,02,31,-9.00
2024,01,26,02,32,-9.00
2024,01,26,02,33,-8.90
2024,01,26,02,34,-8.90
2024,01,26,02,35,-8.90
2024,01,26,02,36,-8.80
2024,01,26,02,37,-8.80
2024,01,26,02,38,-8.80
2024,01,26,02,39,-8.80
2024,01,26,02,40,-8.80
2024,01,26,02,41,-8.70
2024,01,26,02,42,-8.70
2024,01,26,02,43,-8.70
2024,01,26,02,44,-8.70
2024,01,26,02,45,-8.60
2024,01,26,02,46,-8.60
2024,01,26,02,47,-8.60
2024,01,26,02,48,-8.60
2024,01,26,02,49,-8.50
2024,01,26,02,50,-8.50
2024,01,26,02,51,-8.50
2024,01,26,02,52,-8.40
2024,01,26,02,53,-8.40
2024,01,26,02,54,-8.40
2024,01,26,02,55,-8.30
2024,01,26,02,56,-8.30
2024,01,26,02,57,-8.30
2024,01,26,02,58,-8.30
2024,01,26,02,59,-8.30
2024,01,26,03,00,-8.30
2024,01,26,03,01,-8.30
2024,01,26,03,02,-8.30
2024,01,26,03,03,-8.20
2024,01,26,03,04,-8.20
2024,01,26,03,05,-8.20
2024,01,26,03,06,-8.10
2024,01,26,03,07,-8.10
2024,01,26,03,08,-8.10
2024,01,26,03,09,-8.00
2024,01,26,03,10,-8.00
2024,01,26,03,11,-8.00
2024,01,26,03,12,-7.90
2024,01,26,03,13,-7.90
2024,01,26,03,14,-7.90
2024,01,26,03,15,-7.90
2024,01,26,03,16,-7.90
2024,01,26,03,17,-7.90
2024,01,26,03,18,-7.80
2024,01,26,03,19,-7.80
2024,01,26,03,20,-7.80
2024,01,26,03,21,-7.80
2024,01,26,03,22,-7.80
2024,01,26,03,23,-7.80
2024,01,26,03,24,-7.80
2024,01,26,03,25,-7.80
2024,01,26,03,26,-7.70
2024,01,26,03,27,-7.70
2024,01,26,03,28,-7.80
2024,01,26,03,29,-7.80
2024,01,26,03,30,-7.70
2024,01,26,03,31,-7.80
2024,01,26,03,32,-7.80
2024,01,26,03,33,-7.80
2024,01,26,03,34,-7.80
2024,01,26,03,35,-7.80
2024,01,26,03,36,-7.70
2024,01,26,03,37,-7.70
2024,01,26,03,38,-7.70
2024,01,26,03,39,-7.60
2024,01,26,03,40,-7.60
2024,01,26,03,41,-7.60
2024,01,26,03,42,-7.50
2024,01,26,03,43,-7.50
2024,01,26,03,44,-7.50
2024,01,26,03,45,-7.40
2024,01,26,03,46,-7.40
2024,01,26,03,47,-7.40
2024,01,26,03,48,-7.30
2024,01,26,03,49,-7.30
2024,01,26,03,50,-7.30
2024,01,26,03,51,-7.30
2024,01,26,03,52,-7.30
2024,01,26,03,53,-7.20
2024,01,26,03,54,-7.20
2024,01,26,03,55,-7.10
2024,01,26,03,56,-7.10
2024,01,26,03,57,-7.10
2024,01,26,03,58,-7.00
2024,01,26,03,59,-6.90
2024,01,26,04,00,-6.90
2024,01,26,04,01,-6.90
2024,01,26,04,02,-6.80
2024,01,26,04,03,-6.80
2024,01,26,04,04,-6.70
2024,01,26,04,05,-6.70
2024,01,26,04,06,-6.60
2024,01,26,04,07,-6.60
2024,01,26,04,08,-6.50
2024,01,26,04,09,-6.50
2024,01,26,04,10,-6.50
2024,01,26,04,11,-6.40
2024,01,26,04,12,-6.40
2024,01,26,04,13,-6.30
2024,01,26,04,14,-6.20
2024,01,26,04,15,-6.20
2024,01,26,04,16,-6.10
2024,01,26,04,17,-6.10
2024,01,26,04,18,-6.00
2024,01,26,04,19,-6.00
2024,01,26,04,20,-6.00
2024,01,26,04,21,-6.00
2024,01,26,04,22,-6.00
2024,01,26,04,23,-6.00
2024,01,26,04,24,-5.90
2024,01,26,04,25,-5.70
2024,01,26,04,26,-5.50
2024,01,26,04,27,-5.30
2024,01,26,04,28,-5.20
2024,01,26,04,29,-5.10
2024,01,26,04,30,-5.00
2024,01,26,04,31,-4.90
2024,01,26,04,32,-4.90
2024,01,26,04,33,-4.80
2024,01,26,04,34,-4.70
2024,01,26,04,35,-4.60
2024,01,26,04,36,-4.60
2024,01,26,04,37,-4.60
2024,01,26,04,38,-4.50
2024,01,26,04,39,-4.50
2024,01,26,04,40,-4.40
2024,01,26,04,41,-4.30
2024,01,26,04,42,-4.30
2024,01,26,04,43,-4.30
2024,01,26,04,44,-4.30
2024,01,26,04,45,-4.30
2024,01,26,04,46,-4.40
2024,01,26,04,47,-4.60
2024,01,26,04,48,-4.60
2024,01,26,04,49,-4.70
2024,01,26,04,50,-4.80
2024,01,26,04,51,-4.80
2024,01,26,04,52,-4.80
2024,01,26,04,53,-4.80
2024,01,26,04,54,-4.80
2024,01,26,04,55,-4.90
2024,01,26,04,56,-4.80
2024,01,26,04,57,-4.70
2024,01,26,04,58,-4.50
2024,01,26,04,59,-4.40
2024,01,26,05,00,-4.20
2024,01,26,05,01,-3.90
2024,01,26,05,02,-3.80
2024,01,26,05,03,-4.30
2024,01,26,05,04,-4.50
2024,01,26,05,05,-4.60
2024,01,26,05,06,-4.70
2024,01,26,05,07,-4.70
2024,01,26,05,08,-4.80
2024,01,26,05,09,-4.80
2024,01,26,05,10,-4.70
2024,01,26,05,11,-4.70
2024,01,26,05,12,-4.60
2024,01,26,05,13,-4.60
2024,01,26,05,14,-4.50
2024,01,26,05,15,-4.50
2024,01,26,05,16,-4.50
2024,01,26,05,17,-4.50
2024,01,26,05,18,-4.40
2024,01,26,05,19,-4.40
2024,01,26,05,20,-4.40
2024,01,26,05,21,-4.30
2024,01,26,05,22,-4.30
2024,01,26,05,23,-4.30
2024,01,26,05,24,-4.30
2024,01,26,05,25,-4.30
2024,01,26,05,26,-4.30
2024,01,26,05,27,-4.20
2024,01,26,05,28,-4.20
2024,01,26,05,29,-4.10
2024,01,26,05,30,-4.10
2024,01,26,05,31,-4.00
2024,01,26,05,32,-4.00
2024,01,26,05,33,-3.90
2024,01,26,05,34,-3.80
2024,01,26,05,35,-3.80
2024,01,26,05,36,-3.70
2024,01,26,05,37,-3.60
2024,01,26,05,38,-3.50
2024,01,26,05,39,-3.40
2024,01,26,05,40,-3.30
2024,01,26,05,41,-3.20
2024,01,26,05,42,-3.00
2024,01,26,05,43,-3.00
2024,01,26,05,44,-2.90
2024,01,26,05,45,-2.80
2024,01,26,05,46,-2.80
2024,01,26,05,47,-2.60
2024,01,26,05,48,-2.50
2024,01,26,05,49,-2.50
2024,01,26,05,50,-2.80
2024,01,26,05,51,-3.00
2024,01,26,05,52,-3.10
2024,01,26,05,53,-3.10
2024,01,26,05,54,-3.20
2024,01,26,05,55,-3.20
2024,01,26,05,56,-3.30
2024,01,26,05,57,-3.30
2024,01,26,05,58,-3.40
2024,01,26,05,59,-3.40
2024,01,26,06,00,-3.40
2024,01,26,06,01,-3.50
2024,01,26,06,02,-3.50
2024,01,26,06,03,-3.60
2024,01,26,06,04,-3.60
2024,01,26,06,05,-3.60
2024,01,26,06,06,-3.60
2024,01,26,06,07,-3.60
2024,01,26,06,08,-3.60
2024,01,26,06,09,-3.60
2024,01,26,06,10,-3.60
2024,01,26,06,11,-3.50
2024,01,26,06,12,-3.50
2024,01,26,06,13,-3.50
2024,01,26,06,14,-3.30
2024,01,26,06,15,-3.30
2024,01,26,06,16,-3.20
2024,01,26,06,17,-3.10
2024,01,26,06,18,-3.00
2024,01,26,06,19,-2.90
2024,01,26,06,20,-2.80
2024,01,26,06,21,-2.70
2024,01,26,06,22,-2.50
2024,01,26,06,23,-2.40
2024,01,26,06,24,-2.50
2024,01,26,06,25,-2.60
2024,01,26,06,26,-2.60
2024,01,26,06,27,-2.70
2024,01,26,06,28,-2.70
2024,01,26,06,29,-2.80
2024,01,26,06,30,-2.70
2024,01,26,06,31,-2.80
2024,01,26,06,32,-2.80
2024,01,26,06,33,-2.80
2024,01,26,06,34,-2.80
2024,01,26,06,35,-2.90
2024,01,26,06,36,-2.90
2024,01,26,06,37,-2.90
2024,01,26,06,38,-2.90
2024,01,26,06,39,-2.90
2024,01,26,06,40,-2.90
2024,01,26,06,41,-2.90
2024,01,26,06,42,-2.90
2024,01,26,06,43,-2.90
2024,01,26,06,44,-2.90
2024,01,26,06,45,-2.90
2024,01,26,06,46,-2.90
2024,01,26,06,47,-3.00
2024,01,26,06,48,-3.00
2024,01,26,06,49,-2.90
2024,01,26,06,50,-3.00
2024,01,26,06,51,-3.00
2024,01,26,06,52,-3.00
2024,01,26,06,53,-3.00
2024,01,26,06,54,-3.10
2024,01,26,06,55,-3.00
2024,01,26,06,56,-3.00
2024,01,26,06,57,-3.00
2024,01,26,06,58,-3.10
2024,01,26,06,59,-3.10
2024,01,26,07,00,-3.10
2024,01,26,07,01,-3.10
2024,01,26,07,02,-3.20
2024,01,26,07,03,-3.20
2024,01,26,07,04,-3.20
2024,01,26,07,05,-3.20
2024,01,26,07,06,-3.30
2024,01,26,07,07,-3.20
2024,01,26,07,08,-3.30
2024,01,26,07,09,-3.30
2024,01,26,07,10,-3.30
2024,01,26,07,11,-3.30
2024,01,26,07,12,-3.30
2024,01,26,07,13,-3.30
2024,01,26,07,14,-3.30
2024,01,26,07,15,-3.30
2024,01,26,07,16,-3.30
2024,01,26,07,17,-3.30
2024,01,26,07,18,-3.20
2024,01,26,07,19,-3.30
2024,01,26,07,20,-3.30
2024,01,26,07,21,-3.20
2024,01,26,07,22,-3.30
2024,01,26,07,23,-3.20
2024,01,26,07,24,-3.30
2024,01,26,07,25,-3.30
2024,01,26,07,26,-3.30
2024,01,26,07,27,-3.30
2024,01,26,07,28,-3.30
2024,01,26,07,29,-3.30
2024,01,26,07,30,-3.20
2024,01,26,07,31,-3.30
2024,01,26,07,32,-3.30
2024,01,26,07,33,-3.30
2024,01,26,07,34,-3.40
2024,01,26,07,35,-3.40
2024,01,26,07,36,-3.30
2024,01,26,07,37,-3.30
2024,01,26,07,38,-3.40
2024,01,26,07,39,-3.50
2024,01,26,07,40,-3.50
2024,01,26,07,41,-3.50
2024,01,26,07,42,-3.50
2024,01,26,07,43,-3.50
2024,01,26,07,44,-3.50
2024,01,26,07,45,-3.50
2024,01,26,07,46,-3.50
2024,01,26,07,47,-3.50
2024,01,26,07,48,-3.50
2024,01,26,07,49,-3.50
2024,01,26,12,03,23.60
2024,01,26,12,04,30.10
2024,01,26,12,05,34.10
2024,01,26,12,06,35.00
2024,01,26,12,07,27.40
2024,01,26,12,08,15.40
2024,01,26,12,09,15.30
2024,01,26,12,10,14.20
2024,01,26,12,11,10.20
2024,01,26,12,12,10.20
2024,01,26,12,13,10.00
2024,01,26,12,14,10.00
2024,01,26,12,15,10.00
2024,01,26,12,16,9.90
2024,01,26,12,17,9.90
2024,01,26,12,18,9.80
2024,01,26,12,19,9.70
2024,01,26,12,20,9.80
2024,01,26,12,21,9.60
2024,01,26,12,22,9.40
2024,01,26,12,23,9.40
2024,01,26,12,24,9.30
2024,01,26,12,25,9.30
2024,01,26,12,26,8.70
2024,01,26,12,27,8.70
2024,01,26,12,28,9.00
2024,01,26,12,29,9.10
2024,01,26,12,30,9.20
2024,01,26,12,31,9.00
2024,01,26,12,32,9.10
2024,01,26,12,33,9.10
2024,01,26,12,34,9.10
2024,01,26,12,35,9.20
2024,01,26,12,36,9.10
2024,01,26,12,37,9.00
2024,01,26,12,38,9.00
2024,01,26,12,39,9.00
2024,01,26,12,40,9.00
2024,01,26,12,41,9.00
2024,01,26,12,42,8.90
2024,01,26,12,43,8.90
2024,01,26,12,44,8.90
2024,01,26,12,45,8.90
2024,01,26,12,46,8.80
2024,01,26,12,47,8.80
2024,01,26,12,48,8.70
2024,01,26,12,49,8.50
2024,01,26,12,50,8.40
2024,01,26,12,51,8.30
2024,01,26,12,52,8.30
2024,01,26,12,53,8.30
2024,01,26,12,54,8.20
2024,01,26,12,55,8.10
2024,01,26,12,56,8.10
2024,01,26,12,57,8.10
2024,01,26,12,58,8.00
2024,01,26,12,59,7.90
2024,01,26,13,00,7.90
2024,01,26,13,01,7.90
2024,01,26,13,02,7.80
2024,01,26,13,03,7.90
2024,01,26,13,04,7.80
2024,01,26,13,05,7.70
2024,01,26,13,06,7.70
2024,01,26,13,07,7.80
2024,01,26,13,08,7.70
2024,01,26,13,09,7.70
2024,01,26,13,10,7.70
2024,01,26,13,11,7.60
2024,01,26,13,12,7.60
2024,01,26,13,13,7.50
2024,01,26,13,14,7.50
2024,01,26,13,15,7.50
2024,01,26,13,16,7.50
2024,01,26,13,17,7.50
2024,01,26,13,18,7.50
2024,01,26,13,19,7.40
2024,01,26,13,20,7.40
2024,01,26,13,21,7.40
2024,01,26,13,22,7.40
2024,01,26,13,23,7.30
2024,01,26,13,24,7.30
2024,01,26,13,25,7.20
2024,01,26,13,26,7.20
2024,01,26,13,27,7.20
2024,01,26,13,28,7.10
2024,01,26,13,29,7.00
2024,01,26,13,30,7.00
2024,01,26,13,31,6.90
2024,01,26,13,32,6.90
2024,01,26,13,33,6.80
2024,01,26,13,34,6.80
2024,01,26,13,35,6.60
2024,01,26,13,36,6.60
2024,01,26,13,37,6.50
2024,01,26,13,38,6.40
2024,01,26,13,39,6.40
2024,01,26,13,40,6.30
2024,01,26,13,41,6.20
2024,01,26,13,42,6.20
2024,01,26,13,43,6.20
2024,01,26,13,44,6.20
2024,01,26,13,45,6.20
2024,01,26,13,46,6.20
2024,01,26,13,47,6.10
2024,01,26,13,48,6.00
2024,01,26,13,49,6.00
2024,01,26,13,50,5.90
2024,01,26,13,51,5.90
2024,01,26,13,52,5.80
2024,01,26,13,53,5.70
2024,01,26,13,54,5.70
2024,01,26,13,55,5.60
2024,01,26,13,56,5.60
2024,01,26,13,57,5.50
2024,01,26,13,58,5.50
2024,01,26,13,59,5.40
2024,01,26,14,00,5.30
2024,01,26,14,01,5.20
2024,01,26,14,02,5.10
2024,01,26,14,03,5.10
2024,01,26,14,04,5.00
2024,01,26,14,05,4.90
2024,01,26,14,06,4.90
2024,01,26,14,07,4.80
2024,01,26,14,08,4.80
2024,01,26,14,09,4.70
2024,01,26,14,10,4.70
2024,01,26,14,11,4.60
2024,01,26,14,12,4.60
2024,01,26,14,13,4.50
2024,01,26,14,14,4.50
2024,01,26,14,15,4.40
2024,01,26,14,16,4.40
2024,01,26,14,17,4.30
2024,01,26,14,18,4.10
2024,01,26,14,19,4.00
2024,01,26,14,20,3.80
2024,01,26,14,21,3.60
2024,01,26,14,22,3.20
2024,01,26,14,23,2.30
2024,01,26,14,24,2.20
2024,01,26,14,25,2.00
2024,01,26,14,26,1.90
2024,01,26,14,27,1.80
2024,01,26,14,28,1.80
2024,01,26,14,29,1.60
2024,01,26,14,30,1.50
2024,01,26,14,31,1.40
2024,01,26,14,32,1.40
2024,01,26,14,33,1.30
2024,01,26,14,34,1.10
2024,01,26,14,35,1.10
2024,01,26,14,36,1.00
2024,01,26,14,37,0.90
2024,01,26,14,38,0.80
2024,01,26,14,39,0.80
2024,01,26,14,40,0.70
2024,01,26,14,41,0.60
2024,01,26,14,42,0.60
2024,01,26,14,43,0.50
2024,01,26,14,44,0.40
2024,01,26,14,45,0.40
2024,01,26,14,46,0.30
2024,01,26,14,47,0.30
2024,01,26,14,48,0.20
2024,01,26,14,49,0.10
2024,01,26,14,50,0.10
2024,01,26,14,51,0.10
2024,01,26,14,52,0.00
2024,01,26,14,53,-0.10
2024,01,26,14,54,-0.10
2024,01,26,14,55,-0.10
2024,01,26,14,56,-0.20
2024,01,26,14,57,-0.30
2024,01,26,14,58,-0.40
2024,01,26,14,59,-0.40
2024,01,26,15,00,-0.50
2024,01,26,15,01,-0.60
2024,01,26,15,02,-0.60
2024,01,26,15,03,-0.60
2024,01,26,15,04,-0.70
2024,01,26,15,05,-0.70
2024,01,26,15,06,-0.80
2024,01,26,15,07,-0.90
2024,01,26,15,08,-0.90
2024,01,26,15,09,-0.90
2024,01,26,15,10,-1.00
2024,01,26,15,11,-1.00
2024,01,26,15,12,-1.10
2024,01,26,15,13,-1.20
2024,01,26,15,14,-1.20
2024,01,26,15,15,-1.20
2024,01,26,15,16,-1.30
2024,01,26,15,17,-1.40
2024,01,26,15,18,-1.40
2024,01,26,15,19,-1.50
2024,01,26,15,20,-1.60
2024,01,26,15,21,-1.60
2024,01,26,15,22,-1.60
2024,01,26,15,23,-1.70
2024,01,26,15,24,-1.80
2024,01,26,15,25,-1.80
2024,01,26,15,26,-1.80
2024,01,26,15,27,-1.90
2024,01,26,15,28,-1.90
2024,01,26,15,29,-2.00
2024,01,26,15,30,-2.00
2024,01,26,15,31,-2.10
2024,01,26,15,32,-2.10
2024,01,26,15,33,-2.20
2024,01,26,15,34,-2.20
2024,01,26,15,35,-2.30
2024,01,26,15,36,-2.30
2024,01,26,15,37,-2.30
2024,01,26,15,38,-2.40
2024,01,26,15,39,-2.50
2024,01,26,15,40,-2.50
2024,01,26,15,41,-2.50
2024,01,26,15,42,-2.60
2024,01,26,15,43,-2.60
2024,01,26,15,44,-2.80
2024,01,26,15,45,-2.90
2024,01,26,15,46,-3.00
2024,01,26,15,47,-3.00
2024,01,26,15,48,-3.10
2024,01,26,15,49,-3.20
2024,01,26,15,50,-3.30
2024,01,26,15,51,-3.30
2024,01,26,15,52,-3.30
2024,01,26,15,53,-3.40
2024,01,26,15,54,-3.40
2024,01,26,15,55,-3.50
2024,01,26,15,56,-3.50
2024,01,26,15,57,-3.50
2024,01,26,15,58,-3.70
2024,01,26,15,59,-3.70
2024,01,26,16,00,-3.80
2024,01,26,16,01,-3.90
2024,01,26,16,02,-3.90
2024,01,26,16,03,-3.90
2024,01,26,16,04,-4.00
2024,01,26,16,05,-4.00
2024,01,26,16,06,-4.10
2024,01,26,16,07,-4.10
2024,01,26,16,08,-4.20
2024,01,26,16,09,-4.30
2024,01,26,16,10,-4.30
2024,01,26,16,11,-4.40
2024,01,26,16,12,-4.40
2024,01,26,16,13,-4.50
2024,01,26,16,14,-4.60
2024,01,26,16,15,-4.70
2024,01,26,16,16,-4.70
2024,01,26,16,17,-4.80
2024,01,26,16,18,-4.80
2024,01,26,16,19,-5.00
2024,01,26,16,20,-5.20
2024,01,26,16,21,-5.30
2024,01,26,16,22,-5.40
2024,01,26,16,23,-5.40
2024,01,26,16,24,-5.50
2024,01,26,16,25,-5.50
2024,01,26,16,26,-5.60
2024,01,26,16,27,-5.60
2024,01,26,16,28,-5.70
2024,01,26,16,29,-5.80
2024,01,26,16,30,-5.80
2024,01,26,16,31,-5.80
2024,01,26,16,32,-5.90
2024,01,26,16,33,-5.90
2024,01,26,16,34,-6.00
2024,01,26,16,35,-6.10
2024,01,26,16,36,-6.10
2024,01,26,16,37,-6.10
2024,01,26,16,38,-6.20
2024,01,26,16,39,-6.20
2024,01,26,16,40,-6.20
2024,01,26,16,41,-6.30
2024,01,26,16,42,-6.40
2024,01,26,16,43,-6.40
2024,01,26,16,44,-6.40
2024,01,26,16,45,-6.40
2024,01,26,16,46,-6.50
2024,01,26,16,47,-6.50
2024,01,26,16,48,-6.60
2024,01,26,16,49,-6.60
2024,01,26,16,50,-6.70
2024,01,26,16,51,-6.70
2024,01,26,16,52,-6.70
2024,01,26,16,53,-6.80
2024,01,26,16,54,-6.80
2024,01,26,16,55,-6.90
2024,01,26,16,56,-6.90
2024,01,26,16,57,-7.00
2024,01,26,16,58,-7.00
2024,01,26,16,59,-7.00
2024,01,26,17,00,-7.00
2024,01,26,17,01,-7.10
2024,01,26,17,02,-7.10
2024,01,26,17,03,-7.10
2024,01,26,17,04,-7.10
2024,01,26,17,05,-7.20
2024,01,26,17,06,-7.20
2024,01,26,17,07,-7.30
2024,01,26,17,08,-7.30
2024,01,26,17,09,-7.30
2024,01,26,17,10,-7.40
2024,01,26,17,11,-7.40
2024,01,26,17,12,-7.30
2024,01,26,17,13,-7.40
2024,01,26,17,14,-7.50
2024,01,26,17,15,-7.50
2024,01,26,17,16,-7.50
2024,01,26,17,17,-7.60
2024,01,26,17,18,-7.60
2024,01,26,17,19,-7.60
2024,01,26,17,20,-7.60
2024,01,26,17,21,-7.60
2024,01,26,17,22,-7.70
2024,01,26,17,23,-7.80
2024,01,26,17,24,-7.80
2024,01,26,17,25,-7.90
2024,01,26,17,26,-7.90
2024,01,26,17,27,-7.90
2024,01,26,17,28,-7.90
2024,01,26,17,29,-8.00
2024,01,26,17,30,-7.90
2024,01,26,17,31,-7.90
2024,01,26,17,32,-7.90
2024,01,26,17,33,-7.90
2024,01,26,17,34,-7.90
2024,01,26,17,35,-7.90
2024,01,26,17,36,-8.00
2024,01,26,17,37,-8.00
2024,01,26,17,38,-8.00
2024,01,26,17,39,-8.10
2024,01,26,17,40,-8.00
2024,01,26,17,41,-8.10
2024,01,26,17,42,-8.10
2024,01,26,17,43,-8.10
2024,01,26,17,44,-8.10
2024,01,26,17,45,-8.10
2024,01,26,17,46,-8.10
2024,01,26,17,47,-8.20
2024,01,26,17,48,-8.20
2024,01,26,17,49,-8.20
2024,01,26,17,50,-8.20
2024,01,26,17,51,-8.20
2024,01,26,17,52,-8.20
2024,01,26,17,53,-8.20
2024,01,26,17,54,-8.20
2024,01,26,17,55,-8.20
2024,01,26,17,56,-8.30
2024,01,26,17,57,-8.30
2024,01,26,17,58,-8.30
2024,01,26,17,59,-8.40
2024,01,26,18,00,-8.40
2024,01,26,18,01,-8.40
2024,01,26,18,02,-8.40
2024,01,26,18,03,-8.40
2024,01,26,18,04,-8.40
2024,01,26,18,05,-8.40
2024,01,26,18,06,-8.40
2024,01,26,18,07,-8.50
2024,01,26,18,08,-8.50
2024,01,26,18,09,-8.50
2024,01,26,18,10,-8.50
2024,01,26,18,11,-8.60
2024,01,26,18,12,-8.60
2024,01,26,18,13,-8.60
2024,01,26,18,14,-8.60
2024,01,26,18,15,-8.60
2024,01,26,18,16,-8.60
2024,01,26,18,17,-8.60
2024,01,26,18,18,-8.60
2024,01,26,18,19,-8.60
2024,01,26,18,20,-8.60
2024,01,26,18,21,-8.60
2024,01,26,18,22,-8.70
2024,01,26,18,23,-8.70
2024,01,26,18,24,-8.70
2024,01,26,18,25,-8.70
2024,01,26,18,26,-8.80
2024,01,26,18,27,-8.80
2024,01,26,18,28,-8.80
2024,01,26,18,29,-8.80
2024,01,26,18,30,-8.80
2024,01,26,18,31,-8.80
2024,01,26,18,32,-8.80
2024,01,26,18,33,-8.80
2024,01,26,18,34,-8.80
2024,01,26,18,35,-8.80
2024,01,26,18,36,-8.80
2024,01,26,18,37,-8.80
2024,01,26,18,38,-8.80
2024,01,26,18,39,-8.80
2024,01,26,18,40,-8.80
2024,01,26,18,41,-8.80
2024,01,26,18,42,-8.80
2024,01,26,18,43,-8.90
2024,01,26,18,44,-8.90
2024,01,26,18,45,-8.90
2024,01,26,18,46,-8.90
2024,01,26,18,47,-8.90
2024,01,26,18,48,-8.90
2024,01,26,18,49,-8.90
2024,01,26,18,50,-8.90
2024,01,26,18,51,-8.90
2024,01,26,18,52,-8.90
2024,01,26,18,53,-9.00
2024,01,26,18,54,-8.90
2024,01,26,18,55,-9.00
2024,01,26,18,56,-9.10
2024,01,26,18,57,-9.00
2024,01,26,18,58,-9.00
2024,01,26,18,59,-9.10
2024,01,26,19,00,-9.10
2024,01,26,19,01,-9.10
2024,01,26,19,02,-9.00
2024,01,26,19,03,-9.00
2024,01,26,19,04,-9.10
2024,01,26,19,05,-9.10
2024,01,26,19,06,-9.00
2024,01,26,19,07,-9.00
2024,01,26,19,08,-9.10
2024,01,26,19,09,-9.10
2024,01,26,19,10,-9.10
2024,01,26,19,11,-9.10
2024,01,26,19,12,-9.10
2024,01,26,19,13,-9.10
2024,01,26,19,14,-9.00
2024,01,26,19,15,-9.10
2024,01,26,19,16,-9.10
2024,01,26,19,17,-9.00
2024,01,26,19,18,-9.10
2024,01,26,19,19,-9.10
2024,01,26,19,20,-9.10
2024,01,26,19,21,-9.10
2024,01,26,19,22,-9.00
2024,01,26,19,23,-9.10
2024,01,26,19,24,-9.00
2024,01,26,19,25,-8.90
2024,01,26,19,26,-9.00
2024,01,26,19,27,-8.90
2024,01,26,19,28,-8.90
2024,01,26,19,29,-8.90
2024,01,26,19,30,-8.90
2024,01,26,19,31,-8.80
2024,01,26,19,32,-8.80
2024,01,26,19,33,-8.80
2024,01,26,19,34,-8.80
2024,01,26,19,35,-8.80
2024,01,26,19,36,-8.80
2024,01,26,19,37,-8.80
2024,01,26,19,38,-8.80
2024,01,26,19,39,-8.80
2024,01,26,19,40,-8.70
2024,01,26,19,41,-8.70
2024,01,26,19,42,-8.70
2024,01,26,19,43,-8.70
2024,01,26,19,44,-8.70
2024,01,26,19,45,-8.60
2024,01,26,19,46,-8.60
2024,01,26,19,47,-8.60
2024,01,26,19,48,-8.50
2024,01,26,19,49,-8.50
2024,01,26,19,50,-8.50
2024,01,26,19,51,-8.40
2024,01,26,19,52,-8.40
2024,01,26,19,53,-8.40
2024,01,26,19,54,-8.40
2024,01,26,19,55,-8.40
2024,01,26,19,56,-8.40
2024,01,26,19,57,-8.30
2024,01,26,19,58,-8.30
2024,01,26,19,59,-8.30
2024,01,26,20,00,-8.30
2024,01,26,20,01,-8.20
2024,01,26,20,02,-8.20
2024,01,26,20,03,-8.20
2024,01,26,20,04,-8.20
2024,01,26,20,05,-8.20
2024,01,26,20,06,-8.20
2024,01,26,20,07,-8.10
2024,01,26,20,08,-8.10
2024,01,26,20,09,-8.10
2024,01,26,20,10,-8.00
2024,01,26,20,11,-8.00
2024,01,26,20,12,-8.00
2024,01,26,20,13,-7.90
2024,01,26,20,14,-8.00
2024,01,26,20,15,-8.00
2024,01,26,20,16,-7.90
2024,01,26,20,17,-7.90
2024,01,26,20,18,-7.90
2024,01,26,20,19,-7.90
2024,01,26,20,20,-7.90
2024,01,26,20,21,-7.90
2024,01,26,20,22,-7.90
2024,01,26,20,23,-7.80
2024,01,26,20,24,-7.80
2024,01,26,20,25,-7.80
2024,01,26,20,26,-7.80
2024,01,26,20,27,-7.70
2024,01,26,20,28,-7.70
2024,01,26,20,29,-7.70
2024,01,26,20,30,-7.70
2024,01,26,20,31,-7.70
2024,01,26,20,32,-7.70
2024,01,26,20,33,-7.60
2024,01,26,20,34,-7.70
2024,01,26,20,35,-7.70
2024,01,26,20,36,-7.60
2024,01,26,20,37,-7.60
2024,01,26,20,38,-7.60
2024,01,26,20,39,-7.60
2024,01,26,20,40,-7.60
2024,01,26,20,41,-7.60
2024,01,26,20,42,-7.60
2024,01,26,20,43,-7.60
2024,01,26,20,44,-7.50
2024,01,26,20,45,-7.50
2024,01,26,20,46,-7.40
2024,01,26,20,47,-7.40
2024,01,26,20,48,-7.40
2024,01,26,20,49,-7.30
2024,01,26,20,50,-7.30
2024,01,26,20,51,-7.30
2024,01,26,20,52,-7.30
2024,01,26,20,53,-7.30
2024,01,26,20,54,-7.30
2024,01,26,20,55,-7.30
2024,01,26,20,56,-7.20
2024,01,26,20,57,-7.20
2024,01,26,20,58,-7.20
2024,01,26,20,59,-7.20
2024,01,26,21,00,-7.20
2024,01,26,21,01,-7.20
2024,01,26,21,02,-7.20
2024,01,26,21,03,-7.20
2024,01,26,21,04,-7.10
2024,01,26,21,05,-7.10
2024,01,26,21,06,-7.10
2024,01,26,21,07,-7.10
2024,01,26,21,08,-7.10
2024,01,26,21,09,-7.10
2024,01,26,21,10,-7.00
2024,01,26,21,11,-7.00
2024,01,26,21,12,-7.00
2024,01,26,21,13,-7.00
2024,01,26,21,14,-6.90
2024,01,26,21,15,-6.90
2024,01,26,21,16,-6.90
2024,01,26,21,17,-6.90
2024,01,26,21,18,-6.90
2024,01,26,21,19,-6.90
2024,01,26,21,20,-6.90
2024,01,26,21,21,-6.90
2024,01,26,21,22,-6.80
2024,01,26,21,23,-6.80
2024,01,26,21,24,-6.80
2024,01,26,21,25,-6.80
2024,01,26,21,26,-6.70
2024,01,26,21,27,-6.70
2024,01,26,21,28,-6.70
2024,01,26,21,29,-6.70
2024,01,26,21,30,-6.70
2024,01,26,21,31,-6.70
2024,01,26,21,32,-6.70
2024,01,26,21,33,-6.70
2024,01,26,21,34,-6.70